THOR ABLESTAR DEB, 409

Orbit data source: Space-Track

THOR ABLESTAR DEB, 409 is space debris in LEO originally from a launch on Thu, 29 Jun 1961 UTC launched from the Air Force Eastern Test Range (AFETR). Debris objects in space refer to the collection of defunct objects orbiting the Earth. Examples of debris include non-operational satellites, rocket bodies, and fragments generated from explosions, collisions, or faulty payload assembly.

Loading next visibility...
Identifier
409, 1961-015EJ
Orbit
LEO
Last TLE update
22 hours ago
Origin
Manufacturer
Unknown
Mission
Spacecraft
Bus & Motor
Unknown
Mass
Unknown
Launch date (UTC)
1961-06-29 (64 years ago)
Launch vehicle
Unknown
Launch site
Air Force Eastern Test Range (AFETR)
Object type
Payload
Rocket body
Debris
Shape & HBR
Unknown
Radar Cross Section
Small (<0.1 m²)

Expand to show TLE details & history

TLE from 22 hours ago
0 THOR ABLESTAR DEB
1   409U 61015EJ  25128.76513457  .00001611  00000-0  67277-3 0  9993
2   409  66.7134 324.1819 0056690 110.0117 250.7096 14.27850715284077
Epoch: 2025-05-08T18:21Z
Definitive object data (Epoch: 2025-05-08T18:21:47.626Z)
Latitude
-0.00008°
Longitude
-178.09751°
Altitude
814.678 km
Speed
7.439 km/s
True Right ascension
21h 36m 43s
True Declination
0° 00' 00"
Sunlit
Object was in daylight at TLE epoch
Visualization TLE readout
Latitude
62.49539°
Longitude
-125.20051°
Altitude
775.229 km
Speed
7.49 km/s
Apparent Right ascension
11h 55m 48s
Apparent Declination
53° 53' 20"
Sunlit
Object is in daylight
Visualization observer readout
Local Sidereal Time
00:44:22
Azimuth
7.141° NNE
Elevation
4.386°
Doppler factor
1
Orbital elements
Apogee altitude
837.977 km
Perigee altitude
756.621 km
Semi-major axis
7,175.436 km
Eccentricity
0.005669
Inclination
66.7134°
RAAN
324.1819°
Arg. of periapsis
110.0117°
True anomaly
250.0979°
Mean anomaly
250.7096°
Eccentric anomaly
250.4036°
Mean motion
3.57084 °/min
BSTAR
0.00067277
Orbital period
100.82 mins
Loading maneuver chart data...
Loading SW <> Apogee altitude chart data...

THOR ABLESTAR DEB Visibility forecast

Observer location: undefined°, undefined°

Span
Click to sort rows by Start time (UTC) header in descending order
Start Az.
Max El. time (UTC)
Max El. Az.
Max El.
End time (UTC)
End Az.
9 mins2025-05-09 23:29:52.367Z337.87° N2025-05-09 23:33:52.367Z60.297° ENE43.033°2025-05-09 23:38:52.367Z142.747° SSE
8 mins2025-05-10 14:12:52.367Z197.187° SSW2025-05-10 14:15:52.367Z158.884° S42.721°2025-05-10 14:20:52.367Z33.912° NE
5 mins2025-05-10 15:58:52.367Z292.257° WNW2025-05-10 16:00:52.367Z320.085° NNW17.194°2025-05-10 16:03:52.367Z356.159° N
|